Year,Month,Day,Hour,Minute,Value (Times are PST for temperature in C)
2016,06,07,00,00,14.40
2016,06,07,00,01,14.40
2016,06,07,00,02,14.40
2016,06,07,00,03,14.40
2016,06,07,00,04,14.40
2016,06,07,00,05,14.40
2016,06,07,00,06,14.30
2016,06,07,00,07,14.30
2016,06,07,00,08,14.30
2016,06,07,00,09,14.30
2016,06,07,00,10,14.30
2016,06,07,00,11,14.30
2016,06,07,00,12,14.30
2016,06,07,00,13,14.30
2016,06,07,00,14,14.30
2016,06,07,00,15,14.30
2016,06,07,00,16,14.30
2016,06,07,00,17,14.30
2016,06,07,00,18,14.30
2016,06,07,00,19,14.30
2016,06,07,00,20,14.30
2016,06,07,00,21,14.30
2016,06,07,00,22,14.30
2016,06,07,00,23,14.30
2016,06,07,00,24,14.30
2016,06,07,00,25,14.30
2016,06,07,00,26,14.30
2016,06,07,00,27,14.30
2016,06,07,00,28,14.30
2016,06,07,00,29,14.30
2016,06,07,00,30,14.30
2016,06,07,00,31,14.30
2016,06,07,00,32,14.30
2016,06,07,00,33,14.40
2016,06,07,00,34,14.40
2016,06,07,00,35,14.40
2016,06,07,00,36,14.40
2016,06,07,00,37,14.40
2016,06,07,00,38,14.40
2016,06,07,00,39,14.40
2016,06,07,00,40,14.40
2016,06,07,00,41,14.40
2016,06,07,00,42,14.40
2016,06,07,00,43,14.40
2016,06,07,00,44,14.50
2016,06,07,00,45,14.50
2016,06,07,00,46,14.50
2016,06,07,00,47,14.50
2016,06,07,00,48,14.60
2016,06,07,00,49,14.60
2016,06,07,00,50,14.60
2016,06,07,00,51,14.60
2016,06,07,00,52,14.60
2016,06,07,00,53,14.60
2016,06,07,00,54,14.60
2016,06,07,00,55,14.60
2016,06,07,00,56,14.60
2016,06,07,00,57,14.60
2016,06,07,00,58,14.60
2016,06,07,00,59,14.60
2016,06,07,01,00,14.60
2016,06,07,01,01,14.60
2016,06,07,01,02,14.60
2016,06,07,01,03,14.60
2016,06,07,01,04,14.50
2016,06,07,01,05,14.50
2016,06,07,01,06,14.50
2016,06,07,01,07,14.50
2016,06,07,01,08,14.50
2016,06,07,01,09,14.50
2016,06,07,01,10,14.40
2016,06,07,01,11,14.40
2016,06,07,01,12,14.40
2016,06,07,01,13,14.40
2016,06,07,01,14,14.40
2016,06,07,01,15,14.30
2016,06,07,01,16,14.30
2016,06,07,01,17,14.30
2016,06,07,01,18,14.30
2016,06,07,01,19,14.30
2016,06,07,01,20,14.20
2016,06,07,01,21,14.20
2016,06,07,01,22,14.20
2016,06,07,01,23,14.20
2016,06,07,01,24,14.20
2016,06,07,01,25,14.20
2016,06,07,01,26,14.10
2016,06,07,01,27,14.10
2016,06,07,01,28,14.10
2016,06,07,01,29,14.10
2016,06,07,01,30,14.10
2016,06,07,01,31,14.10
2016,06,07,01,32,14.10
2016,06,07,01,33,14.00
2016,06,07,01,34,14.00
2016,06,07,01,35,14.00
2016,06,07,01,36,14.00
2016,06,07,01,37,13.90
2016,06,07,01,38,13.90
2016,06,07,01,39,13.90
2016,06,07,01,40,13.90
2016,06,07,01,41,13.90
2016,06,07,01,42,13.90
2016,06,07,01,43,13.90
2016,06,07,01,44,13.80
2016,06,07,01,45,13.80
2016,06,07,01,46,13.80
2016,06,07,01,47,13.80
2016,06,07,01,48,13.80
2016,06,07,01,49,13.80
2016,06,07,01,50,13.80
2016,06,07,01,51,13.80
2016,06,07,01,52,13.80
2016,06,07,01,53,13.80
2016,06,07,01,54,13.80
2016,06,07,01,55,13.70
2016,06,07,01,56,13.70
2016,06,07,01,57,13.70
2016,06,07,01,58,13.60
2016,06,07,01,59,13.60
2016,06,07,02,00,13.50
2016,06,07,02,01,13.50
2016,06,07,02,02,13.50
2016,06,07,02,03,13.50
2016,06,07,02,04,13.40
2016,06,07,02,05,13.40
2016,06,07,02,06,13.40
2016,06,07,02,07,13.40
2016,06,07,02,08,13.40
2016,06,07,02,09,13.40
2016,06,07,02,10,13.40
2016,06,07,02,11,13.30
2016,06,07,02,12,13.30
2016,06,07,02,13,13.30
2016,06,07,02,14,13.30
2016,06,07,02,15,13.40
2016,06,07,02,16,13.40
2016,06,07,02,17,13.30
2016,06,07,02,18,13.30
2016,06,07,02,19,13.30
2016,06,07,02,20,13.30
2016,06,07,02,21,13.30
2016,06,07,02,22,13.30
2016,06,07,02,23,13.30
2016,06,07,02,24,13.30
2016,06,07,02,25,13.30
2016,06,07,02,26,13.30
2016,06,07,02,27,13.30
2016,06,07,02,28,13.30
2016,06,07,02,29,13.30
2016,06,07,02,30,13.30
2016,06,07,02,31,13.30
2016,06,07,02,32,13.30
2016,06,07,02,33,13.30
2016,06,07,02,34,13.30
2016,06,07,02,35,13.30
2016,06,07,02,36,13.30
2016,06,07,02,37,13.30
2016,06,07,02,38,13.30
2016,06,07,02,39,13.30
2016,06,07,02,40,13.30
2016,06,07,02,41,13.30
2016,06,07,02,42,13.30
2016,06,07,02,43,13.30
2016,06,07,02,44,13.30
2016,06,07,02,45,13.30
2016,06,07,02,46,13.30
2016,06,07,02,47,13.30
2016,06,07,02,48,13.30
2016,06,07,02,49,13.30
2016,06,07,02,50,13.30
2016,06,07,02,51,13.30
2016,06,07,02,52,13.20
2016,06,07,02,53,13.20
2016,06,07,02,54,13.20
2016,06,07,02,55,13.20
2016,06,07,02,56,13.20
2016,06,07,02,57,13.20
2016,06,07,02,58,13.20
2016,06,07,02,59,13.10
2016,06,07,03,00,13.10
2016,06,07,03,01,13.10
2016,06,07,03,02,13.10
2016,06,07,03,03,13.10
2016,06,07,03,04,13.10
2016,06,07,03,05,13.00
2016,06,07,03,06,13.00
2016,06,07,03,07,13.00
2016,06,07,03,08,12.90
2016,06,07,03,09,12.90
2016,06,07,03,10,12.90
2016,06,07,03,11,12.90
2016,06,07,03,12,12.90
2016,06,07,03,13,12.90
2016,06,07,03,14,12.90
2016,06,07,03,15,12.90
2016,06,07,03,16,12.90
2016,06,07,03,17,12.90
2016,06,07,03,18,12.90
2016,06,07,03,19,12.80
2016,06,07,03,20,12.80
2016,06,07,03,21,12.80
2016,06,07,03,22,12.80
2016,06,07,03,23,12.80
2016,06,07,03,24,12.80
2016,06,07,03,25,12.70
2016,06,07,03,26,12.70
2016,06,07,03,27,12.70
2016,06,07,03,28,12.70
2016,06,07,03,29,12.70
2016,06,07,03,30,12.70
2016,06,07,03,31,12.70
2016,06,07,03,32,12.70
2016,06,07,03,33,12.70
2016,06,07,03,34,12.70
2016,06,07,03,35,12.70
2016,06,07,03,36,12.70
2016,06,07,03,37,12.70
2016,06,07,03,38,12.70
2016,06,07,03,39,12.70
2016,06,07,03,40,12.70
2016,06,07,03,41,12.70
2016,06,07,03,42,12.70
2016,06,07,03,43,12.70
2016,06,07,03,44,12.70
2016,06,07,03,45,12.70
2016,06,07,03,46,12.70
2016,06,07,03,47,12.70
2016,06,07,03,48,12.70
2016,06,07,03,49,12.70
2016,06,07,03,50,12.70
2016,06,07,03,51,12.70
2016,06,07,03,52,12.70
2016,06,07,03,53,12.70
2016,06,07,03,54,12.70
2016,06,07,03,55,12.70
2016,06,07,03,56,12.70
2016,06,07,03,57,12.70
2016,06,07,03,58,12.70
2016,06,07,03,59,12.70
2016,06,07,04,00,12.70
2016,06,07,04,01,12.70
2016,06,07,04,02,12.70
2016,06,07,04,03,12.70
2016,06,07,04,04,12.70
2016,06,07,04,05,12.70
2016,06,07,04,06,12.70
2016,06,07,04,07,12.60
2016,06,07,04,08,12.60
2016,06,07,04,09,12.60
2016,06,07,04,10,12.60
2016,06,07,04,11,12.60
2016,06,07,04,12,12.60
2016,06,07,04,13,12.50
2016,06,07,04,14,12.50
2016,06,07,04,15,12.50
2016,06,07,04,16,12.50
2016,06,07,04,17,12.50
2016,06,07,04,18,12.40
2016,06,07,04,19,12.40
2016,06,07,04,20,12.40
2016,06,07,04,21,12.40
2016,06,07,04,22,12.40
2016,06,07,04,23,12.30
2016,06,07,04,24,12.30
2016,06,07,04,25,12.30
2016,06,07,04,26,12.30
2016,06,07,04,27,12.30
2016,06,07,04,28,12.20
2016,06,07,04,29,12.20
2016,06,07,04,30,12.20
2016,06,07,04,31,12.20
2016,06,07,04,32,12.20
2016,06,07,04,33,12.20
2016,06,07,04,34,12.20
2016,06,07,04,35,12.20
2016,06,07,04,36,12.20
2016,06,07,04,37,12.10
2016,06,07,04,38,12.10
2016,06,07,04,39,12.10
2016,06,07,04,40,12.10
2016,06,07,04,41,12.10
2016,06,07,04,42,12.10
2016,06,07,04,43,12.00
2016,06,07,04,44,12.00
2016,06,07,04,45,12.00
2016,06,07,04,46,11.90
2016,06,07,04,47,11.90
2016,06,07,04,48,11.90
2016,06,07,04,49,11.90
2016,06,07,04,50,11.90
2016,06,07,04,51,11.90
2016,06,07,04,52,11.90
2016,06,07,04,53,11.90
2016,06,07,04,54,11.90
2016,06,07,04,55,11.90
2016,06,07,04,56,11.90
2016,06,07,04,57,11.90
2016,06,07,04,58,11.90
2016,06,07,04,59,11.90
2016,06,07,05,00,11.90
2016,06,07,05,01,11.90
2016,06,07,05,02,11.80
2016,06,07,05,03,11.80
2016,06,07,05,04,11.80
2016,06,07,05,05,11.80
2016,06,07,05,06,11.80
2016,06,07,05,07,11.80
2016,06,07,05,08,11.70
2016,06,07,05,09,11.70
2016,06,07,05,10,11.70
2016,06,07,05,11,11.70
2016,06,07,05,12,11.70
2016,06,07,05,13,11.70
2016,06,07,05,14,11.70
2016,06,07,05,15,11.70
2016,06,07,05,16,11.70
2016,06,07,05,17,11.70
2016,06,07,05,18,11.70
2016,06,07,05,19,11.70
2016,06,07,05,20,11.70
2016,06,07,05,21,11.70
2016,06,07,05,22,11.70
2016,06,07,05,23,11.70
2016,06,07,05,24,11.70
2016,06,07,05,25,11.60
2016,06,07,05,26,11.60
2016,06,07,05,27,11.60
2016,06,07,05,28,11.60
2016,06,07,05,29,11.60
2016,06,07,05,30,11.60
2016,06,07,05,31,11.60
2016,06,07,05,32,11.60
2016,06,07,05,33,11.60
2016,06,07,05,34,11.60
2016,06,07,05,35,11.50
2016,06,07,05,36,11.50
2016,06,07,05,37,11.50
2016,06,07,05,38,11.50
2016,06,07,05,39,11.50
2016,06,07,05,40,11.50
2016,06,07,05,41,11.50
2016,06,07,05,42,11.50
2016,06,07,05,43,11.60
2016,06,07,05,44,11.60
2016,06,07,05,45,11.60
2016,06,07,05,46,11.60
2016,06,07,05,47,11.60
2016,06,07,05,48,11.60
2016,06,07,05,49,11.60
2016,06,07,05,50,11.70
2016,06,07,05,51,11.70
2016,06,07,05,52,11.70
2016,06,07,05,53,11.80
2016,06,07,05,54,11.80
2016,06,07,05,55,11.90
2016,06,07,05,56,11.90
2016,06,07,05,57,12.00
2016,06,07,05,58,12.00
2016,06,07,05,59,12.10
2016,06,07,06,00,12.10
2016,06,07,06,01,12.20
2016,06,07,06,02,12.20
2016,06,07,06,03,12.30
2016,06,07,06,04,12.40
2016,06,07,06,05,12.40
2016,06,07,06,06,12.50
2016,06,07,06,07,12.50
2016,06,07,06,08,12.60
2016,06,07,06,09,12.60
2016,06,07,06,10,12.60
2016,06,07,06,11,12.70
2016,06,07,06,12,12.70
2016,06,07,06,13,12.70
2016,06,07,06,14,12.70
2016,06,07,06,15,12.70
2016,06,07,06,16,12.80
2016,06,07,06,17,12.80
2016,06,07,06,18,12.90
2016,06,07,06,19,13.00
2016,06,07,06,20,13.10
2016,06,07,06,21,13.10
2016,06,07,06,22,13.20
2016,06,07,06,23,13.30
2016,06,07,06,24,13.40
2016,06,07,06,25,13.50
2016,06,07,06,26,13.50
2016,06,07,06,27,13.60
2016,06,07,06,28,13.60
2016,06,07,06,29,13.70
2016,06,07,06,30,13.70
2016,06,07,06,31,13.70
2016,06,07,06,32,13.70
2016,06,07,06,33,13.70
2016,06,07,06,34,13.70
2016,06,07,06,35,13.70
2016,06,07,06,36,13.80
2016,06,07,06,37,13.80
2016,06,07,06,38,13.80
2016,06,07,06,39,13.80
2016,06,07,06,40,13.90
2016,06,07,06,41,13.90
2016,06,07,06,42,14.00
2016,06,07,06,43,14.00
2016,06,07,06,44,14.10
2016,06,07,06,45,14.10
2016,06,07,06,46,14.10
2016,06,07,06,47,14.20
2016,06,07,06,48,14.20
2016,06,07,06,49,14.30
2016,06,07,06,50,14.30
2016,06,07,06,51,14.40
2016,06,07,06,52,14.40
2016,06,07,06,53,14.50
2016,06,07,06,54,14.60
2016,06,07,06,55,14.70
2016,06,07,06,56,14.70
2016,06,07,06,57,14.80
2016,06,07,06,58,14.90
2016,06,07,06,59,15.00
2016,06,07,07,00,15.00
2016,06,07,07,01,15.00
2016,06,07,07,02,15.00
2016,06,07,07,03,15.00
2016,06,07,07,04,15.00
2016,06,07,07,05,15.00
2016,06,07,07,06,15.10
2016,06,07,07,07,15.20
2016,06,07,07,08,15.30
2016,06,07,07,09,15.30
2016,06,07,07,10,15.30
2016,06,07,07,11,15.40
2016,06,07,07,12,15.40
2016,06,07,07,13,15.40
2016,06,07,07,14,15.40
2016,06,07,07,15,15.40
2016,06,07,07,16,15.40
2016,06,07,07,17,15.40
2016,06,07,07,18,15.50
2016,06,07,07,19,15.50
2016,06,07,07,20,15.50
2016,06,07,07,21,15.40
2016,06,07,07,22,15.40
2016,06,07,07,23,15.40
2016,06,07,07,24,15.40
2016,06,07,07,25,15.40
2016,06,07,07,26,15.40
2016,06,07,07,27,15.40
2016,06,07,07,28,15.40
2016,06,07,07,29,15.40
2016,06,07,07,30,15.30
2016,06,07,07,31,15.30
2016,06,07,07,32,15.30
2016,06,07,07,33,15.30
2016,06,07,07,34,15.30
2016,06,07,07,35,15.30
2016,06,07,07,36,15.30
2016,06,07,07,37,15.30
2016,06,07,07,38,15.40
2016,06,07,07,39,15.40
2016,06,07,07,40,15.40
2016,06,07,07,41,15.50
2016,06,07,07,42,15.50
2016,06,07,07,43,15.60
2016,06,07,07,44,15.60
2016,06,07,07,45,15.60
2016,06,07,07,46,15.70
2016,06,07,07,47,15.70
2016,06,07,07,48,15.70
2016,06,07,07,49,15.70
2016,06,07,07,50,15.80
2016,06,07,07,51,15.80
2016,06,07,07,52,15.80
2016,06,07,07,53,15.80
2016,06,07,07,54,15.80
2016,06,07,07,55,15.80
2016,06,07,07,56,15.80
2016,06,07,07,57,15.80
2016,06,07,07,58,15.80
2016,06,07,07,59,15.80
2016,06,07,08,00,15.80
2016,06,07,08,01,15.80
2016,06,07,08,02,15.90
2016,06,07,08,03,15.90
2016,06,07,08,04,15.90
2016,06,07,08,05,15.90
2016,06,07,08,06,15.90
2016,06,07,08,07,15.90
2016,06,07,08,08,15.90
2016,06,07,08,09,15.90
2016,06,07,08,10,15.90
2016,06,07,08,11,15.90
2016,06,07,08,12,15.80
2016,06,07,08,13,15.70
2016,06,07,08,14,15.60
2016,06,07,08,15,15.50
2016,06,07,08,16,15.50
2016,06,07,08,17,15.40
2016,06,07,08,18,15.30
2016,06,07,08,19,15.20
2016,06,07,08,20,15.10
2016,06,07,08,21,15.00
2016,06,07,08,22,15.00
2016,06,07,08,23,15.00
2016,06,07,08,24,14.80
2016,06,07,08,25,14.70
2016,06,07,08,26,14.70
2016,06,07,08,27,14.70
2016,06,07,08,28,14.70
2016,06,07,08,29,14.70
2016,06,07,08,30,14.80
2016,06,07,08,31,14.80
2016,06,07,08,32,14.80
2016,06,07,08,33,14.80
2016,06,07,08,34,14.80
2016,06,07,08,35,14.80
2016,06,07,08,36,14.90
2016,06,07,08,37,15.00
2016,06,07,08,38,14.90
2016,06,07,08,39,15.00
2016,06,07,08,40,15.00
2016,06,07,08,41,14.90
2016,06,07,08,42,15.00
2016,06,07,08,43,15.00
2016,06,07,08,44,15.00
2016,06,07,08,45,15.00
2016,06,07,08,46,15.00
2016,06,07,08,47,15.00
2016,06,07,08,48,15.20
2016,06,07,08,49,15.20
2016,06,07,08,50,15.30
2016,06,07,08,51,15.30
2016,06,07,08,52,15.30
2016,06,07,08,53,15.30
2016,06,07,08,54,15.30
2016,06,07,08,55,15.30
2016,06,07,08,56,15.30
2016,06,07,08,57,15.30
2016,06,07,08,58,15.30
2016,06,07,08,59,15.40
2016,06,07,09,00,15.40
2016,06,07,09,01,15.40
2016,06,07,09,02,15.50
2016,06,07,09,03,15.50
2016,06,07,09,04,15.50
2016,06,07,09,05,15.40
2016,06,07,09,06,15.50
2016,06,07,09,07,15.50
2016,06,07,09,08,15.50
2016,06,07,09,09,15.60
2016,06,07,09,10,15.60
2016,06,07,09,11,15.60
2016,06,07,09,12,15.60
2016,06,07,09,13,15.60
2016,06,07,09,14,15.60
2016,06,07,09,15,15.70
2016,06,07,09,16,15.70
2016,06,07,09,17,15.80
2016,06,07,09,18,15.90
2016,06,07,09,19,15.90
2016,06,07,09,20,15.90
2016,06,07,09,21,16.00
2016,06,07,09,22,16.10
2016,06,07,09,23,16.10
2016,06,07,09,24,16.20
2016,06,07,09,25,16.30
2016,06,07,09,26,16.30
2016,06,07,09,27,16.20
2016,06,07,09,28,16.20
2016,06,07,09,29,16.00
2016,06,07,09,30,15.90
2016,06,07,09,31,15.60
2016,06,07,09,32,15.50
2016,06,07,09,33,15.40
2016,06,07,09,34,15.50
2016,06,07,09,35,15.50
2016,06,07,09,36,15.50
2016,06,07,09,37,15.50
2016,06,07,09,38,15.50
2016,06,07,09,39,15.50
2016,06,07,09,40,15.40
2016,06,07,09,41,15.40
2016,06,07,09,42,15.30
2016,06,07,09,43,15.30
2016,06,07,09,44,15.30
2016,06,07,09,45,15.40
2016,06,07,09,46,15.40
2016,06,07,09,47,15.40
2016,06,07,09,48,15.50
2016,06,07,09,49,15.70
2016,06,07,09,50,15.70
2016,06,07,09,51,15.80
2016,06,07,09,52,15.80
2016,06,07,09,53,15.80
2016,06,07,09,54,15.70
2016,06,07,09,55,15.60
2016,06,07,09,56,15.60
2016,06,07,09,57,15.50
2016,06,07,09,58,15.60
2016,06,07,09,59,15.70
2016,06,07,10,00,15.80
2016,06,07,10,01,16.00
2016,06,07,10,02,16.10
2016,06,07,10,03,16.20
2016,06,07,10,04,16.20
2016,06,07,10,05,16.20
2016,06,07,10,06,16.20
2016,06,07,10,07,16.20
2016,06,07,10,08,16.20
2016,06,07,10,09,16.30
2016,06,07,10,10,16.40
2016,06,07,10,11,16.50
2016,06,07,10,12,16.60
2016,06,07,10,13,16.70
2016,06,07,10,14,16.70
2016,06,07,10,15,16.80
2016,06,07,10,16,16.90
2016,06,07,10,17,16.80
2016,06,07,10,18,16.80
2016,06,07,10,19,16.70
2016,06,07,10,20,16.70
2016,06,07,10,21,16.70
2016,06,07,10,22,16.60
2016,06,07,10,23,16.60
2016,06,07,10,24,16.60
2016,06,07,10,25,16.60
2016,06,07,10,26,16.50
2016,06,07,10,27,16.40
2016,06,07,10,28,16.30
2016,06,07,10,29,16.30
2016,06,07,10,30,16.30
2016,06,07,10,31,16.30
2016,06,07,10,32,16.20
2016,06,07,10,33,16.10
2016,06,07,10,34,16.00
2016,06,07,10,35,16.00
2016,06,07,10,36,16.00
2016,06,07,10,37,16.00
2016,06,07,10,38,15.90
2016,06,07,10,39,16.00
2016,06,07,10,40,16.00
2016,06,07,10,41,15.90
2016,06,07,10,42,15.80
2016,06,07,10,43,15.70
2016,06,07,10,44,15.70
2016,06,07,10,45,15.70
2016,06,07,10,46,15.70
2016,06,07,10,47,15.80
2016,06,07,10,48,15.80
2016,06,07,10,49,15.80
2016,06,07,10,50,15.80
2016,06,07,10,51,15.90
2016,06,07,10,52,16.00
2016,06,07,10,53,16.10
2016,06,07,10,54,16.20
2016,06,07,10,55,16.30
2016,06,07,10,56,16.40
2016,06,07,10,57,16.50
2016,06,07,10,58,16.60
2016,06,07,10,59,16.80
2016,06,07,11,00,16.80
2016,06,07,11,01,16.90
2016,06,07,11,02,17.00
2016,06,07,11,03,17.10
2016,06,07,11,04,17.20
2016,06,07,11,05,17.20
2016,06,07,11,06,17.20
2016,06,07,11,07,17.20
2016,06,07,11,08,17.30
2016,06,07,11,09,17.30
2016,06,07,11,10,17.40
2016,06,07,11,11,17.40
2016,06,07,11,12,17.40
2016,06,07,11,13,17.50
2016,06,07,11,14,17.50
2016,06,07,11,15,17.60
2016,06,07,11,16,17.70
2016,06,07,11,17,17.90
2016,06,07,11,18,18.00
2016,06,07,11,19,18.10
2016,06,07,11,20,18.20
2016,06,07,11,21,18.20
2016,06,07,11,22,18.30
2016,06,07,11,23,18.40
2016,06,07,11,24,18.50
2016,06,07,11,25,18.60
2016,06,07,11,26,18.70
2016,06,07,11,27,18.70
2016,06,07,11,28,18.80
2016,06,07,11,29,18.90
2016,06,07,11,30,19.00
2016,06,07,11,31,19.10
2016,06,07,11,32,19.30
2016,06,07,11,33,19.30
2016,06,07,11,34,19.30
2016,06,07,11,35,19.30
2016,06,07,11,36,19.30
2016,06,07,11,37,19.40
2016,06,07,11,38,19.50
2016,06,07,11,39,19.60
2016,06,07,11,40,19.70
2016,06,07,11,41,19.70
2016,06,07,11,42,19.80
2016,06,07,11,43,19.90
2016,06,07,11,44,20.10
2016,06,07,11,45,20.20
2016,06,07,11,46,20.10
2016,06,07,11,47,20.00
2016,06,07,11,48,19.80
2016,06,07,11,49,19.60
2016,06,07,11,50,19.30
2016,06,07,11,51,19.10
2016,06,07,11,52,19.00
2016,06,07,11,53,19.00
2016,06,07,11,54,18.90
2016,06,07,11,55,18.80
2016,06,07,11,56,18.70
2016,06,07,11,57,18.70
2016,06,07,11,58,18.70
2016,06,07,11,59,18.60
2016,06,07,12,00,18.50
2016,06,07,12,01,18.40
2016,06,07,12,02,18.30
2016,06,07,12,03,18.30
2016,06,07,12,04,18.30
2016,06,07,12,05,18.30
2016,06,07,12,06,18.30
2016,06,07,12,07,18.30
2016,06,07,12,08,18.30
2016,06,07,12,09,18.40
2016,06,07,12,10,18.40
2016,06,07,12,11,18.40
2016,06,07,12,12,18.40
2016,06,07,12,13,18.50
2016,06,07,12,14,18.60
2016,06,07,12,15,18.70
2016,06,07,12,16,18.80
2016,06,07,12,17,18.90
2016,06,07,12,18,18.90
2016,06,07,12,19,18.80
2016,06,07,12,20,18.80
2016,06,07,12,21,18.80
2016,06,07,12,22,18.80
2016,06,07,12,23,18.90
2016,06,07,12,24,18.90
2016,06,07,12,25,19.00
2016,06,07,12,26,19.10
2016,06,07,12,27,19.20
2016,06,07,12,28,19.20
2016,06,07,12,29,19.30
2016,06,07,12,30,19.50
2016,06,07,12,31,19.70
2016,06,07,12,32,19.80
2016,06,07,12,33,19.90
2016,06,07,12,34,19.90
2016,06,07,12,35,19.80
2016,06,07,12,36,19.80
2016,06,07,12,37,19.70
2016,06,07,12,38,19.70
2016,06,07,12,39,19.80
2016,06,07,12,40,19.80
2016,06,07,12,41,19.80
2016,06,07,12,42,19.80
2016,06,07,12,43,19.80
2016,06,07,12,44,19.90
2016,06,07,12,45,20.00
2016,06,07,12,46,20.10
2016,06,07,12,47,20.10
2016,06,07,12,48,20.00
2016,06,07,12,49,20.00
2016,06,07,12,50,20.00
2016,06,07,12,51,20.10
2016,06,07,12,52,20.20
2016,06,07,12,53,20.20
2016,06,07,12,54,20.30
2016,06,07,12,55,20.20
2016,06,07,12,56,20.20
2016,06,07,12,57,20.30
2016,06,07,12,58,20.30
2016,06,07,12,59,20.40
2016,06,07,13,00,20.50
2016,06,07,13,01,20.70
2016,06,07,13,02,20.80
2016,06,07,13,03,20.80
2016,06,07,13,04,20.90
2016,06,07,13,05,21.00
2016,06,07,13,06,21.00
2016,06,07,13,07,21.10
2016,06,07,13,08,21.10
2016,06,07,13,09,21.10
2016,06,07,13,10,21.10
2016,06,07,13,11,21.20
2016,06,07,13,12,21.20
2016,06,07,13,13,21.10
2016,06,07,13,14,21.10
2016,06,07,13,15,21.10
2016,06,07,13,16,21.10
2016,06,07,13,17,21.10
2016,06,07,13,18,21.00
2016,06,07,13,19,21.00
2016,06,07,13,20,21.00
2016,06,07,13,21,21.10
2016,06,07,13,22,21.00
2016,06,07,13,23,20.90
2016,06,07,13,24,20.80
2016,06,07,13,25,20.60
2016,06,07,13,26,20.50
2016,06,07,13,27,20.40
2016,06,07,13,28,20.40
2016,06,07,13,29,20.40
2016,06,07,13,30,20.30
2016,06,07,13,31,20.20
2016,06,07,13,32,20.20
2016,06,07,13,33,20.20
2016,06,07,13,34,20.20
2016,06,07,13,35,20.20
2016,06,07,13,36,20.20
2016,06,07,13,37,20.30
2016,06,07,13,38,20.40
2016,06,07,13,39,20.40
2016,06,07,13,40,20.40
2016,06,07,13,41,20.40
2016,06,07,13,42,20.50
2016,06,07,13,43,20.60
2016,06,07,13,44,20.60
2016,06,07,13,45,20.70
2016,06,07,13,46,20.60
2016,06,07,13,47,20.60
2016,06,07,13,48,20.60
2016,06,07,13,49,20.60
2016,06,07,13,50,20.60
2016,06,07,13,51,20.50
2016,06,07,13,52,20.50
2016,06,07,13,53,20.50
2016,06,07,13,54,20.60
2016,06,07,13,55,20.70
2016,06,07,13,56,20.70
2016,06,07,13,57,20.80
2016,06,07,13,58,20.90
2016,06,07,13,59,21.00
2016,06,07,14,00,21.10
2016,06,07,14,01,21.20
2016,06,07,14,02,21.30
2016,06,07,14,03,21.20
2016,06,07,14,04,21.30
2016,06,07,14,05,21.30
2016,06,07,14,06,21.20
2016,06,07,14,07,21.30
2016,06,07,14,08,21.30
2016,06,07,14,09,21.30
2016,06,07,14,10,21.10
2016,06,07,14,11,21.00
2016,06,07,14,12,20.90
2016,06,07,14,13,20.80
2016,06,07,14,14,20.80
2016,06,07,14,15,20.80
2016,06,07,14,16,20.70
2016,06,07,14,17,20.70
2016,06,07,14,18,20.70
2016,06,07,14,19,20.80
2016,06,07,14,20,20.80
2016,06,07,14,21,20.80
2016,06,07,14,22,20.80
2016,06,07,14,23,20.70
2016,06,07,14,24,20.50
2016,06,07,14,25,20.40
2016,06,07,14,26,20.50
2016,06,07,14,27,20.50
2016,06,07,14,28,20.60
2016,06,07,14,29,20.70
2016,06,07,14,30,20.70
2016,06,07,14,31,20.80
2016,06,07,14,32,20.80
2016,06,07,14,33,20.80
2016,06,07,14,34,20.80
2016,06,07,14,35,20.80
2016,06,07,14,36,20.80
2016,06,07,14,37,20.90
2016,06,07,14,38,21.00
2016,06,07,14,39,21.10
2016,06,07,14,40,21.00
2016,06,07,14,41,20.90
2016,06,07,14,42,20.80
2016,06,07,14,43,20.70
2016,06,07,14,44,20.60
2016,06,07,14,45,20.40
2016,06,07,14,46,20.30
2016,06,07,14,47,20.30
2016,06,07,14,48,20.40
2016,06,07,14,49,20.40
2016,06,07,14,50,20.20
2016,06,07,14,51,20.20
2016,06,07,14,52,20.10
2016,06,07,14,53,20.10
2016,06,07,14,54,20.10
2016,06,07,14,55,20.20
2016,06,07,14,56,20.20
2016,06,07,14,57,20.20
2016,06,07,14,58,20.20
2016,06,07,14,59,20.30
2016,06,07,15,00,20.30
2016,06,07,15,01,20.40
2016,06,07,15,02,20.50
2016,06,07,15,03,20.70
2016,06,07,15,04,20.80
2016,06,07,15,05,20.90
2016,06,07,15,06,21.00
2016,06,07,15,07,21.10
2016,06,07,15,08,21.30
2016,06,07,15,09,21.30
2016,06,07,15,10,21.40
2016,06,07,15,11,21.40
2016,06,07,15,12,21.50
2016,06,07,15,13,21.60
2016,06,07,15,14,21.70
2016,06,07,15,15,21.80
2016,06,07,15,16,21.90
2016,06,07,15,17,22.10
2016,06,07,15,18,22.20
2016,06,07,15,19,22.30
2016,06,07,15,20,22.30
2016,06,07,15,21,22.40
2016,06,07,15,22,22.40
2016,06,07,15,23,22.20
2016,06,07,15,24,22.00
2016,06,07,15,25,21.80
2016,06,07,15,26,21.50
2016,06,07,15,27,21.40
2016,06,07,15,28,21.30
2016,06,07,15,29,21.20
2016,06,07,15,30,21.20
2016,06,07,15,31,21.10
2016,06,07,15,32,21.10
2016,06,07,15,33,21.10
2016,06,07,15,34,21.00
2016,06,07,15,35,20.80
2016,06,07,15,36,20.80
2016,06,07,15,37,20.80
2016,06,07,15,38,20.80
2016,06,07,15,39,20.90
2016,06,07,15,40,20.80
2016,06,07,15,41,20.80
2016,06,07,15,42,20.80
2016,06,07,15,43,20.80
2016,06,07,15,44,20.80
2016,06,07,15,45,20.90
2016,06,07,15,46,20.90
2016,06,07,15,47,20.90
2016,06,07,15,48,20.90
2016,06,07,15,49,21.00
2016,06,07,15,50,21.00
2016,06,07,15,51,21.10
2016,06,07,15,52,21.20
2016,06,07,15,53,21.20
2016,06,07,15,54,21.30
2016,06,07,15,55,21.40
2016,06,07,15,56,21.50
2016,06,07,15,57,21.70
2016,06,07,15,58,21.80
2016,06,07,15,59,21.90
2016,06,07,16,00,21.90
2016,06,07,16,01,22.00
2016,06,07,16,02,22.10
2016,06,07,16,03,22.10
2016,06,07,16,04,22.10
2016,06,07,16,05,22.20
2016,06,07,16,06,22.20
2016,06,07,16,07,22.30
2016,06,07,16,08,22.30
2016,06,07,16,09,22.30
2016,06,07,16,10,22.40
2016,06,07,16,11,22.40
2016,06,07,16,12,22.50
2016,06,07,16,13,22.50
2016,06,07,16,14,22.60
2016,06,07,16,15,22.60
2016,06,07,16,16,22.60
2016,06,07,16,17,22.60
2016,06,07,16,18,22.60
2016,06,07,16,19,22.70
2016,06,07,16,20,22.70
2016,06,07,16,21,22.80
2016,06,07,16,22,22.80
2016,06,07,16,23,22.90
2016,06,07,16,24,23.00
2016,06,07,16,25,23.10
2016,06,07,16,26,23.10
2016,06,07,16,27,23.20
2016,06,07,16,28,23.20
2016,06,07,16,29,23.30
2016,06,07,16,30,23.30
2016,06,07,16,31,23.40
2016,06,07,16,32,23.40
2016,06,07,16,33,23.50
2016,06,07,16,34,23.60
2016,06,07,16,35,23.70
2016,06,07,16,36,23.80
2016,06,07,16,37,23.80
2016,06,07,16,38,23.90
2016,06,07,16,39,24.00
2016,06,07,16,40,24.10
2016,06,07,16,41,24.10
2016,06,07,16,42,24.20
2016,06,07,16,43,24.30
2016,06,07,16,44,24.30
2016,06,07,16,45,24.40
2016,06,07,16,46,24.40
2016,06,07,16,47,24.40
2016,06,07,16,48,24.40
2016,06,07,16,49,24.40
2016,06,07,16,50,24.40
2016,06,07,16,51,24.40
2016,06,07,16,52,24.40
2016,06,07,16,53,24.30
2016,06,07,16,54,24.30
2016,06,07,16,55,24.20
2016,06,07,16,56,24.20
2016,06,07,16,57,24.10
2016,06,07,16,58,24.10
2016,06,07,16,59,24.00
2016,06,07,17,00,24.00
2016,06,07,17,01,23.90
2016,06,07,17,02,23.80
2016,06,07,17,03,23.80
2016,06,07,17,04,23.70
2016,06,07,17,05,23.70
2016,06,07,17,06,23.70
2016,06,07,17,07,23.70
2016,06,07,17,08,23.70
2016,06,07,17,09,23.70
2016,06,07,17,10,23.60
2016,06,07,17,11,23.60
2016,06,07,17,12,23.70
2016,06,07,17,13,23.70
2016,06,07,17,14,23.70
2016,06,07,17,15,23.80
2016,06,07,17,16,23.80
2016,06,07,17,17,23.80
2016,06,07,17,18,23.90
2016,06,07,17,19,23.90